Temp
67 67 67 67 67 66 66 66 67 67 66 67 67 67 67 66 66 71 67 71 74 78 78 75 75 73 73 69 68 65 58 55 59 59 64 69 68 73 73 72 73 76 75 78 79
67 67 67 67 66 66 65 66 66 66 66 66 67 66 66 66 70 68 76 78 78 78 74 71 70 71 67 67 66 62 56 59 64 66 65 67 68 69 71 69 71 73 78 78 80
67 67 66 66 66 65 65 65 66 66 67 66 66 66 66 65 68 68 78 78 79 76 74 73 72 71 65 66 64 61 59 63 66 68 67 67 67 70 67 65 69 69 72 75 75
66 66 66 66 65 65 65 65 66 67 67 66 66 65 66 68 59 72 78 78 78 76 75 72 69 65 61 61 64 61 64 64 66 66 64 65 68 67 67 67 70 68 69 70 71
66 65 65 65 65 65 65 65 66 66 66 66 66 66 67 64 65 76 76 76 76 75 70 69 65 64 60 61 63 61 62 64 65 63 64 64 63 65 66 68 69 68 65 63 65
65 65 65 65 64 65 65 65 66 66 66 66 67 66 68 58 74 73 73 74 74 73 70 70 67 67 63 61 61 61 61 61 63 64 64 63 63 65 66 66 67 63 60 59 59
65 65 65 64 64 64 65 65 66 66 66 67 67 69 66 63 73 72 72 72 73 73 70 71 71 68 65 61 63 61 59 60 62 63 63 63 60 62 64 66 64 59 58 57 58
64 65 64 63 63 64 65 65 66 66 67 68 67 67 61 72 72 72 72 74 74 75 73 72 72 67 63 64 60 57 56 53 61 62 62 64 54 63 65 64 59 56 55 55 56
64 63 63 62 62 64 64 65 66 68 68 69 67 66 59 74 69 70 70 70 70 72 71 74 68 60 61 55 53 52 49 50 54 60 59 58 53 61 64 60 54 53 53 54 55
62 62 62 61 62 64 64 66 67 67 67 71 68 63 66 62 66 68 70 71 67 67 66 62 58 54 53 53 45 46 46 48 48 56 55 53 52 57 56 52 49 50 50 51 53
62 61 61 61 62 64 61 62 58 60 58 55 56 57 61 66 67 67 69 68 66 61 55 56 52 47 50 51 52 49 47 46 49 54 51 50 51 53 49 49 47 48 49 50 51
61 61 60 61 61 62 58 52 51 54 53 58 58 60 62 63 61 65 69 61 59 52 55 52 46 53 55 53 51 49 46 44 48 52 52 51 49 46 46 44 46 47 48 48 51
61 60 60 60 61 57 55 52 57 56 52 58 60 61 62 65 58 60 64 59 55 51 50 48 50 55 53 48 46 45 42 42 42 47 49 47 46 44 44 45 47 47 47 49 49
60 60 60 60 59 54 52 55 54 56 47 52 57 62 64 62 56 64 63 60 56 50 51 50 53 50 48 46 46 41 46 45 44 42 39 48 35 42 42 43 44 45 47 48 49
59 59 59 59 54 52 56 54 54 54 40 54 56 67 62 56 55 59 60 59 50 50 51 47 46 45 44 46 48 44 47 45 45 41 38 38 36 40 42 42 44 45 46 48 50
59 59 60 56 54 54 53 54 54 49 38 49 54 51 52 52 52 54 52 55 54 49 48 46 52 49 47 49 48 48 44 42 37 37 31 34 34 36 40 41 42 44 47 48 49
58 59 59 58 50 55 52 52 48 40 49 45 45 49 46 43 47 46 43 41 38 37 35 40 44 48 49 44 46 44 39 31 31 32 31 35 33 39 40 41 42 43 46 48 49
57 58 58 59 53 51 52 51 42 42 41 48 47 46 41 42 43 43 40 36 41 39 34 31 34 42 46 44 40 39 38 31 21 25 29 37 28 37 42 43 44 45 47 48 49
57 51 52 56 53 51 52 40 37 39 44 43 44 39 39 41 41 39 36 36 38 39 33 30 32 43 45 45 44 38 34 39 30 30 24 30 35 41 41 43 45 46 47 47 49
49 49 51 55 50 51 44 38 39 45 45 45 38 39 35 34 36 36 35 38 38 41 41 36 28 38 42 45 43 40 41 30 30 16 16 24 28 31 37 37 44 43 44 46 48
47 47 53 53 52 46 36 36 42 46 46 42 38 36 35 34 35 34 33 37 40 40 40 36 32 33 38 37 34 35 33 32 31 27 18 16 25 37 39 41 39 42 45 45 46
44 45 50 50 42 34 34 39 46 42 44 42 41 39 36 35 33 33 33 36 42 40 34 37 30 24 31 38 38 36 32 31 22 20 24 21 23 43 41 41 43 43 44 45 46
40 39 48 47 32 30 37 39 40 39 38 39 37 39 39 34 30 34 35 41 41 39 35 38 29 21 27 33 36 31 34 34 29 24 21 17 23 42 43 42 43 42 43 43 44
39 34 38 36 33 34 33 33 35 40 39 39 37 38 35 31 34 31 34 39 39 40 46 41 29 25 21 25 29 27 30 31 29 21 22 23 27 34 37 38 41 42 43 42 43
36 33 32 25 29 30 30 31 33 33 37 38 35 35 33 22 30 30 33 33 37 40 37 34 23 27 29 30 30 29 29 30 23 26 21 27 27 32 37 39 41 41 40 41 43
34 31 32 27 27 25 27 26 33 33 34 33 33 35 33 29 32 29 32 31 30 34 33 33 24 27 23 29 29 26 30 30 30 30 29 29 28 39 41 40 38 40 40 40 42
35 36 35 33 26 25 25 30 33 34 36 37 36 33 31 33 35 36 35 34 34 30 28 27 25 21 17 25 26 21 27 29 31 33 32 26 34 38 37 39 40 40 40 40 41
MSLP
1018.01 1017.58 1017.11 1016.66 1016.24 1015.85 1015.42 1015.04 1014.65 1014.29 1014.06 1013.89 1013.71 1013.53 1013.33 1013.12 1012.87 1012.81 1013.32 1013.55 1013.11 1012.56 1012.22 1012.14 1012.14 1012.30 1012.43 1013.12 1013.53 1013.87 1014.19 1014.16 1013.64 1013.34 1012.87 1012.58 1012.42 1012.32 1012.26 1012.04 1011.78 1011.65 1011.59 1011.63 1011.48
1018.03 1017.61 1017.19 1016.70 1016.21 1015.75 1015.29 1014.90 1014.50 1014.12 1013.86 1013.71 1013.59 1013.49 1013.38 1013.19 1013.02 1013.26 1013.53 1013.16 1012.90 1012.64 1012.56 1012.58 1012.72 1012.71 1013.17 1013.56 1013.85 1014.07 1014.49 1014.14 1013.73 1013.45 1013.25 1013.01 1012.86 1012.77 1012.61 1012.47 1012.26 1012.01 1011.71 1011.73 1011.61
1018.15 1017.73 1017.22 1016.70 1016.14 1015.58 1015.09 1014.65 1014.26 1013.86 1013.62 1013.54 1013.50 1013.41 1013.33 1013.28 1013.21 1013.85 1013.31 1013.06 1012.81 1012.70 1012.76 1012.80 1012.86 1012.99 1013.53 1013.81 1014.22 1014.33 1014.32 1014.17 1013.82 1013.61 1013.57 1013.35 1013.08 1013.05 1013.02 1013.13 1013.21 1013.05 1012.66 1012.44 1012.33
1018.30 1017.83 1017.28 1016.70 1016.09 1015.49 1014.95 1014.49 1014.06 1013.68 1013.45 1013.40 1013.42 1013.40 1013.28 1013.22 1014.28 1013.85 1013.35 1013.05 1012.76 1012.61 1012.68 1012.88 1013.06 1013.57 1014.12 1014.37 1014.48 1014.46 1014.39 1014.30 1014.04 1013.98 1013.92 1013.66 1013.34 1013.34 1013.55 1013.94 1013.78 1013.84 1013.66 1013.39 1013.16
1018.34 1017.87 1017.30 1016.72 1016.08 1015.39 1014.78 1014.32 1013.93 1013.64 1013.47 1013.39 1013.40 1013.36 1013.45 1013.87 1014.55 1013.80 1013.53 1013.17 1012.86 1012.88 1013.21 1013.32 1013.62 1014.11 1014.59 1014.78 1014.68 1014.70 1014.71 1014.46 1014.27 1014.14 1013.98 1013.88 1013.71 1013.80 1013.93 1014.04 1014.16 1014.43 1014.35 1014.44 1014.45
1018.47 1017.91 1017.27 1016.58 1015.93 1015.35 1014.71 1014.18 1013.81 1013.59 1013.52 1013.38 1013.32 1013.28 1013.34 1014.34 1014.26 1014.04 1013.66 1013.31 1013.34 1013.33 1013.57 1013.59 1014.03 1014.21 1014.65 1014.94 1015.03 1015.09 1014.87 1014.70 1014.36 1014.17 1014.06 1014.03 1013.97 1013.98 1014.35 1014.38 1014.54 1014.84 1015.48 1015.84 1015.98
1018.51 1018.00 1017.38 1016.59 1015.78 1015.13 1014.53 1014.04 1013.77 1013.61 1013.58 1013.41 1013.27 1013.21 1013.85 1014.82 1014.30 1014.05 1013.73 1013.71 1013.66 1013.60 1013.79 1013.88 1013.93 1014.18 1014.73 1015.06 1015.17 1015.18 1015.11 1014.82 1014.69 1014.62 1014.53 1014.44 1014.43 1014.31 1014.75 1014.77 1015.28 1016.07 1016.60 1016.92 1017.21
1018.39 1017.84 1017.24 1016.52 1015.59 1014.92 1014.30 1013.90 1013.74 1013.60 1013.55 1013.45 1013.34 1013.35 1014.55 1014.35 1014.22 1014.06 1013.95 1013.76 1013.69 1013.64 1013.82 1013.95 1013.96 1014.45 1015.08 1015.37 1015.56 1015.75 1015.90 1015.84 1015.37 1015.14 1015.18 1014.85 1015.15 1014.70 1015.18 1015.49 1016.18 1016.95 1017.65 1017.92 1018.05
1018.34 1017.79 1017.25 1016.62 1015.63 1014.93 1014.23 1013.82 1013.70 1013.55 1013.48 1013.30 1013.44 1013.58 1014.96 1014.39 1014.58 1014.72 1014.58 1014.39 1014.14 1014.08 1014.20 1014.21 1014.53 1015.71 1015.99 1016.45 1016.60 1017.07 1017.25 1017.13 1016.40 1016.07 1016.10 1016.19 1015.93 1015.60 1015.78 1016.49 1017.31 1018.14 1018.59 1018.87 1018.93
1018.45 1017.94 1017.34 1016.70 1015.75 1014.78 1014.15 1013.92 1013.71 1013.48 1013.61 1013.51 1014.08 1014.57 1015.44 1015.91 1015.62 1015.20 1014.60 1014.51 1014.65 1014.68 1014.84 1015.25 1016.03 1016.98 1017.76 1017.69 1018.53 1018.60 1018.49 1018.12 1017.69 1016.92 1016.89 1016.74 1016.54 1016.73 1017.40 1017.70 1018.55 1019.11 1019.39 1019.49 1019.51
1018.57 1018.04 1017.50 1016.91 1016.15 1014.92 1014.22 1014.39 1015.09 1015.28 1015.94 1016.82 1016.96 1016.70 1016.50 1016.17 1015.87 1015.55 1015.17 1015.01 1015.22 1015.78 1016.70 1017.04 1017.76 1018.68 1018.92 1018.97 1019.03 1019.11 1019.13 1018.90 1018.61 1018.18 1017.97 1017.51 1017.36 1017.72 1018.80 1019.25 1019.75 1020.05 1020.12 1020.02 1019.90
1018.66 1018.01 1017.52 1017.07 1016.62 1015.90 1015.53 1017.35 1018.89 1019.18 1018.42 1017.53 1017.27 1016.99 1016.76 1016.67 1016.33 1016.15 1015.51 1016.07 1016.62 1017.39 1017.57 1018.08 1019.01 1019.39 1019.28 1019.50 1019.59 1019.65 1019.82 1019.75 1019.05 1018.68 1018.53 1017.59 1017.53 1018.64 1019.50 1020.34 1020.58 1020.67 1020.82 1020.60 1020.21
1018.69 1018.08 1017.49 1017.04 1016.75 1017.03 1017.96 1019.30 1019.13 1019.15 1018.70 1018.06 1017.48 1017.26 1017.19 1017.02 1017.65 1017.52 1017.17 1017.39 1017.91 1018.30 1018.83 1019.21 1019.86 1019.57 1019.55 1019.86 1019.97 1020.20 1020.41 1020.32 1020.10 1019.11 1018.64 1018.30 1017.69 1019.02 1020.04 1020.62 1021.00 1020.89 1020.84 1020.70 1020.50
1018.77 1018.28 1017.62 1016.94 1017.33 1018.36 1018.91 1019.34 1019.07 1019.11 1019.05 1019.11 1017.83 1017.44 1017.44 1017.52 1018.47 1018.48 1018.40 1018.45 1018.73 1019.28 1019.53 1020.09 1020.26 1020.09 1020.17 1020.40 1020.67 1020.81 1020.94 1020.82 1020.49 1020.31 1019.38 1019.47 1019.08 1019.32 1020.27 1020.71 1020.66 1020.67 1020.81 1020.70 1020.68
1018.92 1018.42 1018.00 1017.17 1018.30 1019.12 1019.82 1019.38 1019.28 1019.24 1019.78 1019.88 1018.54 1017.89 1018.36 1019.03 1019.88 1019.39 1019.77 1019.00 1020.05 1020.42 1020.60 1021.10 1021.03 1021.07 1021.10 1021.22 1021.30 1021.31 1021.28 1021.05 1020.46 1020.58 1020.54 1020.48 1020.73 1019.57 1020.47 1020.65 1020.79 1020.73 1020.82 1020.55 1020.38
1019.13 1018.60 1018.18 1018.38 1018.85 1019.52 1019.49 1019.21 1019.38 1019.45 1020.42 1020.42 1019.85 1019.79 1019.93 1020.70 1021.20 1021.13 1021.01 1020.98 1021.42 1021.48 1021.58 1021.94 1021.67 1021.99 1022.25 1022.11 1022.23 1022.08 1021.82 1021.15 1021.40 1021.58 1021.66 1021.84 1022.14 1020.62 1020.48 1020.90 1020.99 1021.20 1020.91 1020.89 1020.60
1019.31 1018.88 1018.40 1018.96 1019.92 1019.34 1019.45 1019.35 1019.69 1020.59 1021.76 1021.95 1021.64 1021.76 1022.29 1022.91 1023.02 1023.30 1023.92 1024.17 1024.34 1023.94 1024.03 1023.63 1023.06 1023.02 1023.04 1022.88 1022.81 1022.94 1023.13 1022.84 1022.25 1021.93 1022.26 1022.29 1022.21 1020.48 1021.09 1021.32 1021.44 1021.27 1021.02 1020.83 1020.57
1019.46 1019.14 1019.23 1019.26 1019.50 1019.24 1019.28 1019.53 1020.56 1022.51 1022.73 1022.81 1022.73 1023.05 1023.89 1024.49 1024.81 1024.94 1025.37 1026.21 1026.19 1026.22 1026.09 1025.81 1024.46 1024.41 1024.32 1024.25 1024.37 1024.34 1024.66 1025.43 1025.04 1024.08 1023.65 1023.54 1021.83 1021.02 1021.37 1021.66 1021.65 1021.40 1021.05 1020.63 1020.26
1019.40 1019.71 1019.75 1019.36 1019.19 1019.02 1019.33 1021.23 1023.09 1023.57 1023.81 1023.78 1023.84 1024.40 1025.23 1025.64 1025.98 1026.16 1026.98 1027.66 1027.75 1027.47 1027.68 1027.28 1026.13 1025.41 1024.95 1024.79 1024.90 1025.07 1025.41 1025.83 1025.90 1025.34 1024.87 1023.61 1022.86 1021.44 1021.43 1021.49 1021.49 1021.09 1020.70 1020.50 1019.70
1020.38 1020.46 1020.33 1019.52 1019.14 1019.19 1020.74 1023.77 1024.58 1024.67 1024.64 1024.52 1025.06 1025.78 1026.52 1027.17 1027.25 1027.60 1028.15 1028.93 1028.71 1028.46 1028.32 1028.71 1027.87 1026.58 1025.77 1025.38 1025.49 1025.58 1026.17 1026.78 1027.13 1026.84 1026.02 1024.45 1023.56 1022.13 1022.05 1021.65 1021.46 1021.32 1020.75 1020.15 1019.51
1020.70 1021.09 1020.48 1019.80 1019.23 1020.66 1023.78 1025.31 1025.63 1025.68 1025.51 1025.77 1026.13 1026.71 1027.43 1027.94 1028.15 1028.72 1029.56 1029.85 1029.25 1028.81 1028.48 1028.59 1028.81 1027.45 1026.85 1026.32 1026.36 1026.72 1026.99 1027.76 1028.30 1028.19 1027.41 1025.73 1023.65 1023.03 1022.63 1022.04 1022.00 1021.43 1020.75 1020.15 1019.41
1021.63 1022.03 1021.28 1020.19 1021.55 1024.61 1026.09 1026.54 1026.49 1026.68 1026.51 1026.66 1027.09 1027.70 1028.13 1028.44 1028.84 1028.91 1029.09 1029.02 1029.49 1029.59 1029.66 1029.55 1029.51 1029.04 1027.97 1027.21 1027.20 1027.46 1027.71 1027.98 1028.93 1028.75 1027.87 1027.20 1023.78 1023.30 1022.70 1022.34 1021.98 1021.36 1020.84 1020.06 1019.47
1023.50 1023.52 1021.95 1021.69 1024.69 1027.05 1027.60 1027.86 1027.97 1027.76 1027.89 1027.82 1028.50 1028.86 1029.08 1029.55 1029.71 1029.52 1029.53 1029.32 1029.44 1029.82 1030.09 1030.03 1030.17 1029.77 1028.17 1028.12 1027.77 1027.84 1028.10 1028.50 1028.94 1029.34 1027.91 1027.48 1024.44 1022.96 1022.61 1021.96 1021.39 1021.25 1020.68 1020.24 1019.50
1024.30 1025.14 1025.27 1025.73 1027.77 1027.90 1028.46 1028.84 1028.76 1028.67 1028.67 1028.68 1029.18 1029.33 1029.85 1030.31 1030.31 1030.40 1030.20 1030.04 1029.93 1029.87 1029.76 1029.97 1030.58 1030.77 1030.51 1029.87 1029.55 1029.05 1028.62 1028.69 1029.16 1028.88 1027.54 1026.28 1024.60 1023.17 1022.77 1022.09 1021.35 1021.01 1020.77 1020.30 1019.60
1025.42 1027.77 1028.41 1029.64 1029.78 1029.67 1029.49 1029.79 1029.58 1029.40 1029.36 1029.53 1029.98 1030.14 1030.71 1031.53 1031.72 1031.50 1031.00 1030.71 1030.35 1030.17 1030.32 1030.83 1030.86 1030.78 1030.76 1030.50 1030.12 1029.36 1028.29 1027.47 1028.18 1027.61 1027.56 1025.38 1024.62 1023.28 1022.86 1022.17 1021.59 1021.21 1020.81 1020.22 1019.52
1026.15 1027.50 1028.91 1030.16 1030.52 1030.40 1030.54 1030.43 1030.01 1030.02 1029.99 1030.25 1030.44 1030.94 1031.54 1031.52 1032.17 1032.45 1032.16 1031.92 1031.92 1031.48 1031.55 1031.97 1031.83 1031.56 1030.48 1030.06 1029.79 1028.89 1027.51 1027.27 1026.69 1026.45 1026.34 1025.38 1024.34 1023.20 1022.54 1022.16 1021.62 1020.98 1020.67 1020.14 1019.59
1026.48 1027.21 1027.64 1030.73 1030.94 1030.91 1030.96 1030.60 1030.47 1030.40 1030.74 1030.74 1030.96 1031.57 1031.75 1032.21 1032.22 1032.52 1032.48 1032.28 1032.45 1032.92 1032.96 1032.88 1032.58 1032.46 1031.39 1030.42 1029.72 1028.56 1027.77 1027.07 1026.32 1025.78 1025.59 1025.04 1024.26 1023.52 1022.73 1022.15 1021.48 1020.75 1020.46 1020.01 1019.52
Wind_Speed
15 17 18 18 19 18 18 18 17 16 13 12 10 9 9 10 4 3 7 3 5 11 6 2 5 5 3 4 3 2 4 0 1 2 2 4 5 2 2 2 4 4 1 3 7
15 16 18 19 19 18 18 17 17 15 12 10 9 7 7 7 2 9 3 6 7 9 4 6 5 5 3 3 3 4 2 2 2 1 2 4 3 5 3 7 4 5 5 4 6
16 18 19 19 19 19 18 17 17 15 11 8 7 6 7 3 5 4 9 7 7 4 2 1 0 2 4 2 3 1 2 1 1 2 4 3 5 1 0 2 2 7 11 13 10
17 18 19 19 19 19 18 18 17 14 7 5 5 5 4 1 3 4 12 10 8 4 2 4 5 4 3 3 3 2 2 1 2 2 4 3 2 3 2 2 8 8 8 7 12
18 18 18 19 20 19 19 17 15 11 4 3 3 4 1 8 3 6 12 9 2 3 5 3 6 2 3 2 3 3 3 5 5 6 4 3 4 1 2 6 8 10 12 12 12
17 17 19 20 20 18 18 16 11 6 3 3 3 2 4 8 4 7 8 4 5 5 5 5 3 1 3 2 2 3 4 6 4 5 2 2 2 3 2 10 11 15 14 15 16
17 17 18 19 20 19 18 13 7 4 2 3 4 3 13 2 4 6 8 3 4 2 3 2 1 3 2 1 3 1 5 5 5 6 3 2 1 2 4 7 14 13 13 15 15
18 19 19 21 21 20 19 9 7 3 2 3 3 4 5 2 3 6 7 2 5 3 2 2 2 4 4 2 4 4 4 4 3 8 5 4 4 5 7 12 14 13 12 13 15
18 20 20 20 21 21 17 6 6 2 5 3 4 7 3 7 6 6 4 4 4 3 6 4 5 4 6 4 3 8 4 4 9 4 8 10 9 9 13 11 8 9 10 11 11
18 18 19 19 20 21 11 2 8 5 7 2 3 5 6 4 6 6 4 4 5 2 5 8 6 5 5 8 5 7 4 3 6 6 9 10 10 7 11 9 9 10 10 10 10
18 17 17 17 16 21 7 5 8 9 12 5 1 3 4 7 3 8 4 5 4 9 5 5 9 5 3 1 2 3 3 6 5 4 12 5 15 8 6 10 9 8 8 8 8
17 18 17 16 9 15 6 9 2 2 5 2 1 3 3 2 5 15 7 6 7 4 6 7 4 4 2 4 3 3 4 5 10 6 10 12 17 4 8 4 5 6 7 7 6
19 19 18 17 1 6 9 5 6 3 5 4 2 3 4 5 5 10 8 3 6 5 5 3 1 3 2 3 4 2 2 4 7 6 7 9 6 3 4 3 4 6 2 4 6
18 17 18 14 7 2 4 6 3 3 6 10 7 6 6 3 6 4 6 2 6 3 3 4 3 3 4 3 1 2 2 5 9 12 9 7 9 4 1 2 2 5 5 6 7
18 16 12 14 4 5 6 6 3 2 5 7 5 3 5 8 5 8 5 7 3 4 4 2 5 5 5 0 3 4 7 6 15 12 4 5 3 2 2 1 3 3 4 5 6
15 14 7 6 4 4 5 0 3 6 3 4 6 7 6 8 7 7 10 9 2 3 5 1 3 4 3 3 3 7 6 8 3 2 2 6 4 4 2 2 5 3 6 8 10
15 9 6 2 4 6 3 2 6 7 3 5 4 5 4 7 7 8 5 10 6 7 7 7 3 3 4 5 4 9 8 6 5 2 3 4 6 8 3 3 4 7 10 10 10
13 6 5 4 4 3 3 5 6 1 1 2 4 2 5 7 4 8 4 5 7 6 3 6 5 5 7 3 4 3 2 1 7 6 11 12 9 1 2 4 6 8 11 11 12
5 4 3 6 6 1 5 7 2 2 1 4 1 5 4 4 5 5 5 3 3 6 4 7 5 4 4 3 1 2 1 1 6 5 5 4 6 4 1 5 9 14 12 16 17
3 3 3 12 6 5 8 4 2 3 4 1 3 3 5 7 6 6 4 4 5 6 0 3 8 3 5 1 2 3 0 4 0 4 6 3 11 11 10 13 19 16 17 19 19
4 4 4 13 3 8 6 3 4 3 2 5 2 3 3 3 2 4 4 3 3 4 4 2 3 4 3 2 7 6 2 2 2 2 4 7 10 3 16 17 13 19 19 17 17
3 3 5 7 8 3 4 3 3 5 7 6 5 4 2 2 2 3 3 3 4 4 2 3 0 5 7 6 3 1 1 4 3 5 5 6 17 13 10 10 17 21 16 17 16
3 2 4 4 5 3 3 5 5 6 5 5 4 5 3 2 2 1 1 5 4 4 3 3 1 7 6 2 2 5 0 1 2 2 16 11 13 8 20 24 19 16 17 15 13
4 4 6 7 2 6 5 2 4 4 3 4 3 4 4 3 4 1 2 0 5 2 9 4 2 7 8 10 5 13 10 8 7 8 14 16 24 25 19 19 19 17 15 12 9
4 2 3 4 6 5 4 2 3 3 3 5 4 5 3 3 4 3 1 4 5 6 2 3 5 4 6 13 12 17 21 21 11 18 10 21 19 22 19 18 18 12 10 10 10
5 5 3 3 2 4 4 0 3 2 2 2 5 3 2 3 2 5 2 1 5 5 3 3 5 9 16 11 15 18 20 17 17 17 16 20 22 17 14 10 8 9 8 9 11
1 2 6 2 2 4 2 4 3 3 5 5 3 2 1 1 1 6 6 4 3 2 0 2 2 1 6 5 10 8 6 6 6 6 8 7 11 10 13 14 13 9 9 11 11
Wind_Direction
2 358 353 349 343 337 333 332 332 334 332 330 335 343 345 338 327 14 42 282 319 329 346 319 39 6 42 66 59 115 62 74 246 160 323 1 15 38 326 354 343 330 236 316 318
2 356 350 344 338 334 329 328 332 332 330 328 332 341 338 336 91 60 310 320 329 350 35 41 11 2 54 46 32 71 92 217 218 247 322 332 9 352 11 350 342 341 342 345 356
359 353 347 341 336 332 329 329 333 332 331 332 332 331 332 329 69 346 330 336 334 6 87 103 45 50 66 20 4 127 125 192 13 341 7 332 316 48 95 10 319 318 321 332 339
358 352 345 339 335 330 329 333 334 335 343 351 336 327 327 10 89 293 334 336 334 332 35 33 27 43 65 42 341 23 35 279 295 23 332 288 312 303 64 358 300 311 309 327 340
356 350 343 339 335 331 331 333 333 340 11 25 354 336 295 50 38 316 332 338 4 47 50 56 49 60 51 343 351 45 336 317 312 304 278 308 253 249 30 332 347 42 45 30 29
353 351 345 339 332 331 334 335 336 350 31 48 22 335 64 75 302 329 328 359 22 39 25 44 96 127 92 43 64 301 287 297 300 326 7 10 354 162 210 335 49 49 55 50 49
353 352 347 340 331 335 340 341 345 10 24 21 15 91 65 107 328 330 9 3 352 40 61 44 113 83 144 38 322 332 338 2 18 344 35 309 155 147 37 355 34 54 64 59 54
353 353 348 344 332 338 341 343 345 12 332 348 355 73 94 310 289 12 345 346 3 35 58 29 83 93 49 322 19 42 56 18 358 355 24 23 296 293 3 11 25 50 61 62 52
354 350 347 345 332 339 340 340 348 294 343 335 51 91 59 330 17 320 356 344 312 12 24 67 58 64 20 22 22 19 359 352 325 47 5 38 281 295 324 13 55 83 71 61 52
348 342 343 345 333 342 349 355 348 46 357 22 70 56 5 316 302 329 312 359 35 6 19 34 47 60 28 27 6 326 333 305 277 320 359 303 283 301 1 74 82 78 65 56 49
340 338 341 348 340 352 23 13 18 2 39 73 332 107 323 299 285 345 358 359 27 55 28 20 60 49 340 3 234 250 248 275 280 318 343 289 294 318 46 66 70 63 56 47 33
342 341 344 349 345 1 40 70 111 270 72 74 293 327 254 308 14 354 15 57 44 43 351 27 83 340 328 34 6 325 324 333 287 300 323 293 299 105 59 69 89 81 46 33 22
346 345 344 342 64 37 69 67 303 170 89 9 30 21 328 27 45 341 21 39 48 32 32 91 67 346 58 73 17 100 97 272 266 307 260 302 268 161 90 102 85 50 47 19 359
344 346 346 337 49 329 49 337 322 167 84 336 351 8 359 355 62 349 10 37 29 31 36 82 351 29 39 85 339 291 345 286 301 330 309 21 291 131 38 18 26 19 4 351 346
343 343 353 32 134 50 313 336 106 54 71 339 346 308 352 75 291 358 6 16 57 338 36 330 12 35 51 218 342 288 335 281 289 279 311 15 255 301 289 227 289 333 332 319 323
346 343 4 22 38 111 320 343 48 46 89 351 357 358 23 14 15 321 16 26 36 64 16 57 319 45 338 328 11 305 326 308 53 97 252 114 358 269 261 314 308 311 301 320 326
344 342 50 63 311 329 338 70 43 85 331 336 338 19 78 352 16 21 54 37 27 4 14 344 9 1 24 358 7 23 8 337 322 343 321 184 325 264 318 323 305 325 312 311 305
340 355 2 100 294 310 97 48 74 147 5 324 8 47 66 8 32 5 54 34 19 21 5 1 347 18 334 37 316 4 60 221 292 308 301 310 251 230 291 309 306 293 289 294 293
1 356 24 330 337 51 71 52 118 177 283 346 66 59 22 14 28 56 58 68 42 17 42 349 263 325 42 323 33 356 77 158 273 271 259 252 305 243 337 338 331 331 325 316 311
50 26 313 327 337 57 70 108 83 35 350 19 74 25 31 358 37 34 36 324 357 32 5 4 291 326 297 341 54 110 258 291 109 290 279 280 293 292 319 320 327 325 321 317 312
54 40 285 332 39 48 91 99 99 38 25 38 100 83 97 55 60 28 19 335 347 327 76 87 171 269 344 290 307 341 325 51 300 235 283 306 275 324 303 305 318 313 315 312 308
65 24 326 341 54 36 57 24 17 5 17 35 79 70 76 77 71 96 134 143 338 341 22 310 307 288 252 295 275 214 135 103 172 272 239 274 279 284 290 307 311 307 310 311 309
70 301 334 28 90 62 60 62 62 29 30 27 56 44 19 47 86 114 165 194 75 32 58 359 298 308 318 12 54 81 353 166 159 195 281 284 280 284 310 307 309 312 315 319 320
74 33 346 42 28 107 123 87 104 31 62 65 108 69 56 24 359 226 340 280 334 252 302 293 217 202 255 286 300 298 284 252 259 270 283 267 278 290 300 302 309 312 314 315 315
30 103 171 358 14 66 65 25 92 43 43 31 49 76 92 51 336 335 272 334 321 304 70 89 254 271 282 283 284 277 278 283 251 254 254 276 289 285 291 301 304 299 299 313 328
116 132 35 97 57 77 357 296 130 129 68 22 99 137 86 136 232 283 307 235 245 343 36 10 284 319 297 269 262 268 274 276 276 269 253 259 275 285 283 291 285 296 300 310 311
117 44 101 40 66 87 208 157 117 104 27 57 120 95 17 301 301 253 231 232 282 349 337 249 275 342 279 288 312 281 313 286 281 267 283 292 322 325 322 325 317 304 300 293 299